KC2RP Weather Reports


time (UTC)temp
F
wind
direction
speed
knots
gust
knots
rain 1hr
in
rain 24hr
in
rain mn
in
humidity
%
barometer
mb
20260506231555 47 340 0.0 0.0 0.04 0.80 0.77 97 1007.1
20260506230055 47 77 0.0 0.0 0.03 0.79 0.76 97 1007.0
20260506224545 47 79 0.0 0.0 0.01 0.77 0.74 97 1006.8
20260506223052 47 46 0.0 0.0 0.01 0.76 0.73 97 1006.4
20260506221542 47 355 0.0 0.9 0.01 0.76 0.73 97 1006.3
20260506220042 47 314 0.0 2.6 0.01 0.76 0.73 97 1005.7
20260506214540 47 354 0.0 4.3 0.01 0.76 0.73 97 1005.8
20260506213059 47 35 0.0 1.7 0.01 0.75 0.72 97 1005.6
20260506211549 47 349 0.0 1.7 0.01 0.75 0.72 97 1005.2
20260506210035 49 32 0.0 3.5 0.05 0.75 0.72 97 1004.8
20260506204531 50 136 0.0 4.3 0.05 0.75 0.72 97 1004.6
20260506203030 53 20 0.0 1.7 0.04 0.74 0.71 97 1004.6
20260506201534 56 281 0.0 4.3 0.04 0.74 0.71 97 1003.7
20260506200024 61 81 0.0 0.0 0.00 0.70 0.67 97 1003.4
20260506194527 61 54 0.0 0.0 0.01 0.70 0.67 97 1003.6
20260506193020 61 9 0.0 0.0 0.03 0.70 0.67 97 1003.7
20260506191520 61 237 0.0 0.9 0.06 0.70 0.67 97 1003.8
20260506190019 61 204 0.0 0.9 0.08 0.70 0.67 97 1003.7
20260506184517 61 18 0.0 0.0 0.10 0.69 0.66 97 1004.0
20260506183026 60 256 0.0 1.7 0.09 0.67 0.64 97 1004.0
20260506181514 60 232 0.0 0.0 0.09 0.64 0.61 97 1004.2
20260506180013 60 253 0.0 0.9 0.14 0.62 0.59 97 1004.2
20260506174511 60 354 0.0 1.7 0.15 0.59 0.56 97 1004.0
20260506173007 59 36 0.0 1.7 0.17 0.57 0.55 97 1004.2
20260506171505 58 233 0.0 0.0 0.16 0.55 0.52 97 1004.4
20260506170115 57 236 0.0 0.0 0.11 0.48 0.45 97 1004.7
20260506164601 57 238 0.0 0.0 0.10 0.44 0.41 97 1004.9
20260506163109 57 236 0.0 0.0 0.12 0.42 0.39 97 1004.9
20260506161555 56 236 0.0 1.7 0.11 0.39 0.36 97 1005.0
20260506160052 56 228 0.0 0.0 0.11 0.37 0.34 97 1005.3
20260506154550 56 228 0.0 0.0 0.09 0.33 0.30 97 1005.5
20260506153047 56 228 0.0 0.0 0.09 0.30 0.27 97 1005.7
20260506151547 56 228 0.0 0.0 0.11 0.28 0.25 97 1005.7
20260506150045 55 228 0.0 0.0 0.10 0.26 0.23 97 1005.9
20260506144559 55 228 0.0 0.0 0.10 0.24 0.21 97 1006.3
20260506143043 55 229 0.0 0.0 0.07 0.20 0.17 97 1006.5
20260506141543 55 228 0.0 0.0 0.07 0.17 0.14 97 1006.6
20260506140045 54 228 0.0 0.0 0.08 0.16 0.13 97 1006.6
20260506134541 54 228 0.0 0.0 0.08 0.14 0.11 97 1006.5
20260506133043 54 228 0.0 0.0 0.07 0.12 0.09 97 1006.2
20260506131539 54 228 0.0 0.0 0.06 0.10 0.07 97 1006.2
20260506130038 54 228 0.0 0.0 0.05 0.08 0.05 97 1006.3
20260506124537 54 200 0.0 0.0 0.03 0.06 0.03 97 1006.4
20260506123036 54 200 0.0 0.0 0.02 0.05 0.02 97 1006.8
20260506121537 53 200 0.0 0.0 0.00 0.03 0.00 97 1007.1
20260506120041 53 200 0.0 0.0 0.00 0.03 0.00 97 1007.1
20260506114534 53 201 0.0 0.0 0.00 0.03 0.00 97 1006.8
20260506113034 53 199 0.0 0.0 0.00 0.03 0.00 97 1006.7
20260506111530 0 0.0 0.0 0.00 0.03 0.00 1006.3
20260506110026 0 0.0 0.0 0.00 0.03 0.00 1006.5
20260506104521 0 0.0 0.0 0.00 0.03 0.00 1006.9
20260506103016 0 0.0 0.0 0.00 0.03 0.00 1006.2
20260506101512 0 0.0 0.0 0.00 0.03 0.00 1006.5
20260506100009 0 0.0 0.0 0.00 0.03 0.00 1006.1
20260506094505 0 0.0 0.0 0.00 0.03 0.00 1006.1
20260506093059 0 0.0 0.0 0.00 0.03 0.00 1006.0
20260506091604 0 0.0 0.0 0.00 0.03 0.00 1005.9
20260506090054 0 0.0 0.0 0.00 0.03 0.00 1006.3
20260506084601 0 0.0 0.0 0.00 0.03 0.00 1006.2
20260506083043 52 294 0.0 0.0 0.00 0.03 0.00 95 1006.4
20260506081542 53 294 0.0 0.0 0.00 0.03 0.00 96 1006.6
20260506073035 53 294 0.0 0.0 0.00 0.03 0.00 96 1007.1
20260506071534 54 294 0.0 0.0 0.00 0.03 0.00 96 1007.0
20260506061544 54 288 0.0 1.7 0.00 0.03 0.00 96 1007.5
20260506044521 57 345 0.0 0.0 0.00 0.03 0.00 96 1007.9
20260506043028 57 345 0.0 0.0 0.00 0.03 0.00 96 1007.5
20260506041512 57 341 0.0 0.0 0.00 0.03 0.00 96 1007.5
20260506040010 57 25 0.0 0.9 0.00 0.03 0.00 96 1007.0
20260506034508 58 290 0.0 2.6 0.00 0.03 0.00 96 1007.2
20260506033005 58 304 0.0 2.6 0.00 0.03 0.00 95 1007.4
20260506031501 59 279 0.0 0.0 0.00 0.03 0.03 95 1007.4
20260506030059 60 30 0.0 2.6 0.00 0.03 0.03 95 1007.2
20260506024600 60 312 0.0 2.6 0.00 0.03 0.03 95 1006.9
20260506023056 60 277 0.0 2.6 0.03 0.03 0.03 95 1006.9
20260506021604 60 328 0.0 0.0 0.03 0.03 0.03 95 1006.9
20260506020054 60 328 0.0 0.0 0.03 0.03 0.03 95 1006.5
20260506014553 61 326 0.0 0.0 0.03 0.03 0.03 93 1006.3
20260506013057 61 326 0.0 0.0 0.00 0.00 0.00 89 1006.3
20260506011603 61 326 0.0 0.0 0.00 0.00 0.00 88 1006.0
20260506010050 61 326 0.0 0.0 0.00 0.00 0.00 87 1005.8
20260506004549 62 326 0.0 0.0 0.00 0.00 0.00 86 1005.8
20260506003048 62 326 0.0 0.0 0.00 0.00 0.00 85 1005.8
20260506001551 62 326 0.0 0.0 0.00 0.00 0.00 84 1005.2
20260506000048 63 326 0.0 0.0 0.00 0.00 0.00 83 1005.1
20260505234551 64 326 0.0 0.0 0.00 0.00 0.00 80 1004.8
20260505233046 64 326 0.0 0.0 0.00 0.00 0.00 79 1004.6